RH
7 8 8 8 8 8 8 7 7 7 7 7 6 6 6 6 6 6 6 5 5 5 5 5 5 5 5 5 5 5 4 5 7 9 19 23 15 10 8 6 6 6 7 11 15 18 24 27 29 29 28 28 28 33 35 36 38 38 39 36 34 33 31 29 25 21 24 37 43 50 51 33 27 36 45 51 57 60 58 46 28 26 31 37 50 63 66 60 56 57 60 62 64 64 63 63 59
9 8 8 9 8 8 7 7 7 6 7 5 6 6 5 5 5 5 5 5 5 4 4 5 5 4 5 5 4 5 5 4 7 7 8 10 9 8 5 4 4 4 7 11 15 18 22 25 26 27 27 28 31 35 37 38 40 40 38 36 35 32 32 29 23 19 26 41 46 52 51 36 31 40 49 54 59 61 58 47 30 28 33 41 53 63 66 62 59 58 59 63 66 68 66 64 59
9 8 8 8 7 8 6 7 6 5 6 4 11 10 4 5 5 5 5 4 4 4 4 4 4 4 4 4 5 5 7 7 8 8 7 8 9 7 4 4 4 5 7 10 13 17 20 23 25 26 28 30 33 36 36 38 39 38 36 35 35 34 32 26 20 19 30 44 49 54 51 38 35 43 52 57 60 60 57 46 32 30 35 45 57 64 66 66 65 59 59 65 67 66 65 64 59
9 8 8 7 7 7 6 6 5 5 4 3 13 11 3 6 5 4 5 4 4 4 4 4 3 4 3 4 5 6 8 8 8 9 7 7 6 5 5 4 5 6 8 10 13 16 19 22 24 25 28 31 34 34 35 37 37 36 35 36 35 35 32 22 18 21 35 48 52 55 50 38 38 47 54 63 64 56 55 46 34 34 36 46 59 67 70 72 72 66 64 68 67 64 66 67 61
9 8 7 7 6 6 6 6 5 5 4 3 11 9 4 5 5 5 4 4 4 3 3 3 3 3 4 5 4 5 10 9 9 11 9 7 6 5 4 4 6 7 10 12 13 15 19 22 24 26 28 31 32 32 33 35 35 35 36 36 36 35 29 19 18 26 42 52 56 57 48 39 42 50 58 71 68 54 53 45 37 38 37 47 61 69 73 77 79 76 71 68 66 67 74 73 63
8 8 7 7 6 7 6 5 5 4 4 3 6 6 4 5 4 4 4 3 3 3 3 2 2 3 4 6 4 3 5 7 8 9 8 6 5 4 4 6 7 8 11 13 16 17 19 22 25 27 29 30 31 31 32 33 35 35 35 36 36 34 25 18 20 30 47 58 61 58 47 42 45 52 65 75 63 50 50 43 43 42 40 50 63 71 76 81 83 80 76 73 69 73 85 81 67
7 7 7 7 6 6 6 5 5 4 5 4 3 4 5 5 4 4 3 3 3 3 3 2 2 2 3 4 6 6 6 5 5 5 5 5 5 5 5 6 8 10 12 15 18 19 20 23 25 27 29 30 31 30 30 32 35 34 35 37 36 32 22 17 22 34 52 62 64 57 46 43 46 55 70 71 52 44 46 44 49 46 43 54 65 72 78 84 83 79 82 88 85 83 92 85 71
6 6 6 6 6 6 5 5 4 3 4 5 4 4 5 5 4 4 3 3 2 2 2 2 2 1 2 3 9 16 14 9 8 8 8 6 6 7 6 7 9 11 13 16 18 19 22 24 25 27 29 29 29 29 29 32 34 36 37 36 34 29 19 15 23 39 57 67 65 54 45 44 47 59 70 59 40 38 43 47 55 50 47 57 68 73 79 86 85 82 83 90 94 92 92 85 75
6 6 6 6 6 6 5 4 4 4 4 5 5 4 5 4 4 4 3 3 2 3 2 2 2 1 2 2 7 16 16 9 8 10 8 7 7 6 6 8 11 13 15 17 18 21 24 24 26 27 28 28 28 28 28 30 33 36 36 34 32 24 16 13 25 47 64 69 62 50 47 50 52 58 61 45 31 35 42 51 59 54 51 60 70 73 80 89 90 88 80 77 85 91 91 85 81
5 6 6 6 5 5 4 4 3 3 4 5 5 5 5 4 4 3 3 3 2 3 2 2 2 1 3 2 9 20 23 17 9 8 7 6 7 7 7 10 13 15 16 18 19 22 23 24 25 25 26 26 27 27 26 28 30 31 31 31 27 19 13 11 29 57 70 67 57 49 49 53 55 53 46 34 27 35 44 55 62 58 55 63 71 74 80 91 97 92 82 78 79 89 95 89 85
5 6 5 5 5 4 3 4 5 4 5 5 4 5 5 5 4 4 3 3 2 3 2 3 1 1 3 3 17 29 30 27 15 10 9 7 8 9 10 13 15 15 16 18 19 21 22 22 23 24 25 26 26 25 24 25 27 28 28 26 22 17 12 15 39 66 70 62 56 51 48 48 48 42 36 29 27 37 48 59 66 62 59 64 70 73 80 89 95 92 90 94 84 86 96 93 89
5 5 5 5 4 4 3 5 6 5 5 5 5 6 6 4 4 4 3 3 2 2 2 2 2 3 2 9 27 29 27 26 15 11 10 8 9 10 12 14 15 15 16 18 18 20 20 20 21 23 23 23 22 21 23 24 25 26 25 22 19 15 13 24 51 69 66 59 55 51 45 42 40 34 31 26 30 41 51 63 69 65 63 67 68 66 75 84 87 90 96 100 88 82 90 95 96
5 5 5 5 4 5 4 5 5 4 5 4 6 7 5 4 4 4 3 3 2 3 3 2 4 6 5 16 31 30 30 26 13 10 9 8 10 10 12 13 14 14 16 18 18 18 18 20 20 21 20 18 18 19 21 22 23 22 20 19 17 15 20 39 61 67 62 60 56 50 43 37 33 30 27 26 35 44 51 67 72 68 67 67 65 61 72 85 85 86 90 91 84 78 82 90 98
5 5 5 5 5 5 4 4 4 5 7 6 7 7 4 5 4 4 3 2 2 4 3 2 6 11 15 21 28 33 33 27 15 10 8 8 10 12 12 11 11 13 14 16 18 17 18 20 19 17 16 14 15 16 18 18 16 15 14 15 15 19 31 50 63 64 63 61 56 48 39 31 28 26 25 28 38 43 51 70 73 69 69 66 63 60 72 88 87 83 81 79 78 82 87 92 98
5 5 5 5 5 5 4 5 4 7 11 6 7 8 5 5 4 4 4 2 3 5 5 5 7 16 25 26 33 44 34 25 19 12 10 10 10 12 10 8 9 10 12 15 18 18 18 20 19 17 15 14 14 14 13 12 11 11 11 12 17 26 41 56 63 66 66 61 54 43 29 22 23 23 23 26 35 43 58 73 74 70 68 64 62 61 75 90 93 90 86 79 75 85 98 99 95
5 5 5 6 4 6 8 5 4 7 10 6 7 8 5 5 5 4 3 2 3 5 4 4 9 19 28 27 34 47 40 31 27 21 18 14 15 14 9 10 12 12 13 17 21 19 19 20 18 16 15 14 13 12 11 10 9 10 11 14 23 34 48 59 66 68 67 60 49 34 21 16 18 20 22 27 37 52 70 76 73 71 65 61 62 66 80 89 93 93 87 81 76 80 93 97 90
5 5 5 6 3 9 13 7 5 7 7 7 8 6 5 5 4 3 3 3 3 8 10 8 16 17 21 29 30 33 39 44 43 38 31 19 20 19 13 14 15 16 16 20 26 23 20 19 18 19 19 16 13 11 9 8 8 10 14 21 29 41 53 62 69 71 67 59 46 32 20 15 19 24 32 42 54 67 78 77 72 69 62 61 64 67 75 79 86 91 88 86 83 79 83 87 83
5 5 5 6 4 9 12 7 6 7 6 8 7 6 5 4 4 4 2 2 1 8 13 12 16 12 15 27 23 25 38 53 54 41 30 20 20 22 17 15 15 16 19 22 25 22 19 18 18 21 22 18 15 12 10 9 9 11 18 29 39 47 56 66 74 73 67 60 52 40 25 25 34 37 44 58 72 81 78 72 69 64 60 60 61 64 67 71 80 86 87 88 86 83 81 80 80
5 6 5 6 7 7 8 7 7 6 6 7 6 6 5 4 4 3 2 4 2 6 14 13 12 17 22 17 11 19 30 40 39 29 28 25 23 25 19 15 15 15 19 21 23 21 18 16 15 21 25 26 29 22 15 14 11 13 23 35 45 52 58 68 76 72 66 64 59 48 38 44 50 49 60 72 78 82 75 67 66 61 59 58 59 65 66 71 77 78 81 84 82 77 74 76 79
5 6 6 7 8 7 7 7 7 6 7 6 6 5 4 4 3 3 3 1 0 2 16 23 21 31 33 19 19 25 23 24 25 27 33 30 22 19 16 14 13 14 18 20 22 20 17 17 14 21 30 39 56 50 29 21 15 14 25 36 45 54 62 69 71 63 60 64 62 56 51 52 58 67 76 76 73 73 70 66 63 60 58 57 61 63 63 67 69 70 74 76 74 69 71 76 75
6 6 7 8 8 7 7 8 7 6 6 5 5 4 4 4 2 4 1 7 20 11 13 30 28 42 50 33 33 36 31 29 26 29 30 24 17 14 15 17 15 17 22 22 21 19 16 19 15 21 35 42 67 75 48 30 20 17 25 35 46 55 62 65 60 56 64 70 63 58 57 59 73 87 85 77 72 68 66 65 62 61 56 56 60 58 60 64 63 69 71 70 70 62 65 71 64
7 7 7 7 7 7 8 8 6 6 5 5 5 4 4 4 3 4 -1 13 36 16 11 33 29 51 77 55 40 41 38 36 34 36 33 26 24 23 23 22 21 22 24 23 22 21 18 20 15 18 34 44 65 78 63 43 26 21 29 38 49 57 62 61 53 53 69 72 63 64 66 71 80 82 81 79 73 66 65 65 63 58 53 55 57 56 61 62 63 73 69 67 64 54 59 58 43
8 8 8 8 8 8 8 7 6 5 5 4 4 4 4 3 2 4 2 5 15 3 3 20 11 32 73 64 45 41 41 46 48 48 43 37 33 31 29 27 26 25 24 24 24 25 22 20 17 14 25 43 60 63 59 57 40 29 37 43 49 60 63 58 55 59 66 62 60 67 74 79 76 66 68 70 66 65 66 67 61 52 51 54 56 58 62 61 65 70 60 50 44 49 67 57 37
8 8 8 9 8 8 7 6 6 5 4 4 4 4 3 4 3 2 4 2 3 3 2 7 4 16 45 44 33 41 51 54 52 51 50 45 38 31 29 30 30 28 27 27 27 26 23 20 19 18 19 34 55 55 50 61 61 47 43 48 50 57 61 58 63 68 66 61 59 66 78 88 81 66 63 61 62 68 68 65 57 48 49 52 52 53 57 61 61 54 38 29 26 37 53 47 42
9 10 9 9 8 7 6 6 5 4 4 4 3 4 3 3 4 2 4 5 3 2 6 25 38 30 27 23 27 46 55 48 41 45 48 42 38 33 31 32 32 32 30 29 30 29 25 19 19 24 23 29 47 52 50 63 76 65 47 50 54 56 62 64 69 73 70 65 61 67 81 85 75 62 58 58 63 71 69 62 54 49 49 49 48 49 52 52 42 30 21 22 29 37 44 42 43
10 10 9 8 8 7 6 6 5 5 4 4 4 3 4 3 3 3 2 4 3 6 27 56 59 33 16 24 44 54 47 40 39 42 42 39 37 35 34 34 33 35 33 32 33 30 24 18 22 35 37 40 47 47 52 67 79 69 49 50 56 58 66 68 69 74 72 68 64 65 66 59 51 49 50 57 68 72 67 58 52 50 50 49 49 52 49 36 24 19 22 30 38 45 51 48 44
11 10 10 9 8 7 7 6 5 5 4 4 5 2 4 4 2 6 8 6 -0 14 54 63 39 18 11 24 43 46 40 38 40 41 41 41 38 35 35 34 35 36 36 35 33 27 24 20 19 31 36 42 57 61 61 68 71 65 56 57 58 60 69 74 78 80 75 75 73 61 48 39 38 43 49 60 71 71 62 56 53 52 51 51 53 51 36 23 19 20 29 39 46 51 51 49 48
11 10 10 9 8 8 6 6 6 5 5 4 5 3 4 4 1 10 20 15 -1 17 63 60 29 18 14 26 40 39 36 35 38 42 40 38 36 36 35 33 37 39 38 36 29 21 22 22 13 21 41 50 60 69 69 70 66 56 52 54 55 57 65 74 80 80 76 76 71 56 41 35 38 44 54 66 72 68 60 55 53 53 53 53 51 40 24 18 18 21 35 41 46 51 47 47 48
12 11 11 11 9 9 6 7 5 4 6 3 4 4 2 5 2 7 16 12 0 14 49 54 37 24 19 40 54 42 33 32 36 38 33 32 32 33 34 37 41 39 37 32 25 18 13 17 11 17 51 66 63 65 74 82 71 52 48 52 54 58 65 72 71 69 70 64 55 49 40 36 42 51 61 70 70 65 59 54 54 54 55 53 42 26 17 17 15 19 33 35 41 49 45 48 47
13 11 11 11 9 11 8 7 7 5 6 3 6 5 3 12 7 8 18 9 2 8 30 50 42 26 31 51 51 37 33 30 31 30 26 28 28 32 35 38 40 36 36 29 21 17 10 11 8 15 57 85 81 73 74 86 80 61 58 63 63 66 69 70 69 65 63 57 49 46 41 41 49 58 67 71 66 62 57 53 54 57 57 46 29 20 17 17 15 16 21 26 39 51 47 46 47
12 12 13 11 14 22 12 6 8 6 6 5 6 3 10 33 34 30 27 9 4 5 20 49 47 31 40 51 43 36 35 29 28 28 25 29 30 33 36 37 38 35 34 27 19 15 10 9 5 23 75 101 93 84 81 91 91 73 66 69 69 75 75 69 67 62 57 56 53 50 48 51 58 64 71 71 63 59 54 51 56 59 53 35 21 21 19 18 18 15 20 27 40 55 52 42 42
11 12 11 9 16 27 15 5 11 7 6 7 6 5 14 39 55 49 27 5 8 11 22 47 47 38 36 36 40 40 35 30 30 28 26 32 36 35 37 39 39 36 33 27 20 15 10 9 5 23 70 91 87 85 82 87 90 78 74 78 81 83 79 72 67 60 54 55 57 59 59 61 67 70 72 67 60 55 50 50 55 50 38 25 21 23 20 21 22 18 25 32 36 46 44 34 34
12 10 14 27 33 36 26 9 8 9 7 7 7 11 17 37 53 42 17 5 10 11 22 45 47 43 36 30 39 43 39 36 32 31 33 38 40 38 40 43 39 37 37 28 21 18 11 8 6 12 40 64 76 83 83 84 85 82 80 82 86 86 79 73 67 59 56 59 65 69 68 70 74 74 71 64 57 53 48 45 41 33 24 20 21 22 20 21 22 21 27 31 33 36 32 26 27
14 11 8 26 38 45 50 29 9 9 10 8 7 8 15 36 48 29 7 5 10 9 15 38 46 41 37 35 41 45 43 41 34 31 37 43 44 43 42 44 41 39 39 31 22 19 12 10 9 7 17 34 55 74 83 86 85 86 87 84 81 79 76 73 65 60 63 67 71 73 73 76 76 73 68 62 57 51 42 33 28 23 20 20 21 21 20 20 21 23 25 27 29 30 25 21 21
34 43 26 20 25 31 48 45 18 9 10 9 10 8 7 19 27 19 10 5 7 12 10 20 39 42 42 43 44 47 44 42 39 32 37 46 47 47 45 44 43 42 42 34 25 20 14 12 11 12 19 29 48 68 77 83 86 89 91 86 80 78 81 81 70 65 72 75 74 73 76 78 75 72 66 60 58 48 34 26 24 22 19 19 21 20 20 21 21 21 21 20 21 21 20 20 21
38 61 59 44 44 44 60 62 25 8 12 10 9 10 9 13 15 13 17 13 4 13 13 8 23 38 44 46 42 43 43 44 45 38 37 46 47 46 47 47 45 45 45 36 26 22 16 14 15 16 22 32 42 51 64 76 79 86 93 91 87 85 85 82 71 66 72 76 73 71 75 77 74 71 64 59 57 44 31 26 24 22 19 18 19 20 21 22 21 18 16 15 14 15 18 21 21
14 26 34 31 35 46 79 80 26 6 14 10 10 9 7 12 12 10 21 28 11 6 14 9 12 30 42 43 36 30 33 38 45 45 39 40 42 42 44 47 47 47 46 35 26 22 17 16 20 19 21 30 34 39 59 70 65 71 87 94 94 89 82 76 72 73 75 75 73 70 72 75 73 67 60 57 56 45 33 27 24 21 18 17 17 17 19 21 20 16 13 12 12 13 16 19 22
7 10 11 14 13 19 67 79 25 8 16 9 12 12 8 10 9 6 14 30 22 4 12 13 9 23 35 35 29 22 22 24 32 39 35 30 31 34 39 43 46 50 46 33 25 20 17 18 21 19 19 28 36 40 55 67 60 56 69 84 90 90 85 79 78 81 79 74 72 68 69 72 70 62 56 54 57 51 38 30 26 23 19 16 16 15 16 18 17 13 12 12 12 14 15 18 22
8 11 8 11 15 19 61 80 34 9 14 12 12 11 10 9 8 8 6 16 20 7 9 16 12 17 23 28 33 30 26 23 22 27 28 27 27 29 36 41 47 51 43 31 24 17 15 18 21 18 14 22 30 31 39 53 52 49 67 83 84 88 91 89 88 87 83 78 75 70 68 71 67 59 55 54 57 55 43 34 29 25 22 18 15 13 13 13 12 12 14 14 15 16 16 19 23
8 11 10 10 14 24 52 77 54 19 12 15 12 11 12 9 7 8 6 9 14 11 11 17 18 17 16 22 34 36 30 25 20 21 24 27 28 27 30 35 44 50 41 29 21 17 15 17 21 16 14 21 26 30 36 41 40 50 77 89 86 92 95 93 93 88 84 83 80 74 70 70 67 61 56 54 56 54 42 32 27 24 23 19 15 14 14 13 14 16 17 17 17 18 18 20 24
9 7 12 10 11 34 60 75 64 28 12 15 13 11 10 9 8 6 8 9 9 11 15 18 19 22 20 19 27 32 28 22 18 21 26 29 30 28 25 28 40 48 40 26 19 17 14 16 21 20 17 18 25 42 43 33 41 61 78 88 93 98 94 93 94 87 87 87 80 76 73 71 68 62 59 56 54 49 36 26 22 22 22 20 19 19 20 19 19 17 15 16 17 21 22 21 24
12 8 11 11 7 36 59 52 38 18 12 20 19 14 14 16 24 32 38 38 32 22 16 20 22 23 25 21 20 27 28 22 18 21 24 27 31 30 24 23 34 43 36 24 17 15 18 24 31 35 32 19 18 38 37 32 54 70 75 86 96 99 95 97 96 86 84 82 78 81 80 77 72 66 62 56 49 41 33 26 23 23 23 23 24 25 24 21 19 14 11 15 16 20 22 22 24
13 13 11 14 8 17 26 17 16 15 18 29 23 21 33 38 47 61 62 63 71 53 23 22 27 25 27 25 21 22 27 25 21 22 25 33 43 38 25 22 29 36 29 19 16 17 23 32 36 44 49 30 15 24 30 39 56 64 77 89 90 94 96 97 93 83 82 84 85 89 89 82 75 70 64 52 41 34 29 25 23 22 21 22 24 23 20 16 14 12 12 17 17 16 18 20 23
20 24 11 11 15 15 16 13 13 12 20 33 27 22 31 34 41 58 62 64 72 60 37 29 28 28 27 24 22 22 28 33 25 20 26 36 44 36 23 23 27 26 21 15 15 20 24 32 42 51 56 42 23 22 32 47 50 52 76 90 85 89 94 95 92 86 88 88 88 94 95 85 76 73 65 48 37 31 24 21 22 21 18 18 17 15 14 13 13 16 19 21 20 18 18 20 25
25 28 11 9 17 18 18 16 14 17 25 29 29 34 35 28 31 44 60 65 55 51 56 46 32 29 25 22 25 23 28 34 22 17 29 35 34 31 25 24 23 19 17 14 16 26 31 42 53 56 60 55 39 27 28 43 53 55 68 82 88 93 93 92 92 92 91 85 87 97 96 85 78 75 65 47 37 30 21 18 19 17 14 15 13 13 16 15 16 22 23 23 22 20 19 23 26
20 16 9 12 16 17 19 15 15 30 39 30 29 46 53 51 50 50 59 65 58 60 64 51 38 31 24 25 28 26 28 28 19 22 41 44 38 35 27 22 21 17 17 15 18 30 42 58 68 65 71 71 53 37 29 42 68 78 77 80 89 95 95 95 94 95 93 88 93 97 90 85 82 76 66 51 39 30 21 18 18 15 14 15 14 18 21 19 20 23 23 23 23 23 24 24 24
16 14 14 16 16 17 18 16 22 39 43 26 23 41 58 65 64 63 65 62 63 68 61 53 51 41 34 35 37 43 44 31 20 24 36 36 33 32 24 21 22 17 16 17 18 24 36 60 77 80 88 88 73 65 61 65 80 90 88 84 86 90 96 100 99 98 95 94 96 90 81 81 81 78 70 57 43 32 23 20 22 22 22 22 21 23 25 24 24 24 23 23 23 25 25 21 22
16 17 18 18 21 21 18 23 32 35 30 27 38 52 61 68 67 65 66 60 59 65 59 54 52 43 39 40 39 46 44 29 21 24 27 27 26 26 23 23 22 17 18 21 21 23 31 47 58 66 80 82 75 78 85 88 90 95 94 84 81 89 96 98 98 98 93 89 87 81 77 80 84 84 75 62 48 34 28 30 35 37 34 32 32 33 34 31 28 26 24 23 22 23 22 20 22
17 20 19 20 35 44 40 46 50 39 29 38 58 65 63 73 79 70 60 53 49 50 49 47 42 35 34 33 30 30 28 26 26 27 28 29 28 27 26 25 21 20 23 24 24 27 34 40 44 56 70 71 64 61 65 74 81 91 92 82 81 90 92 89 92 96 91 84 77 71 77 86 92 88 79 71 55 38 41 52 55 53 46 44 44 43 41 36 30 27 24 22 20 19 19 19 21
18 23 22 21 45 63 58 61 69 65 58 55 59 54 48 65 77 64 48 43 39 35 36 39 38 34 31 29 28 27 26 26 27 27 28 30 30 28 26 24 21 22 26 26 27 33 41 45 47 59 72 75 68 51 42 51 64 74 82 85 89 89 88 90 97 99 92 84 75 72 83 93 95 90 85 82 64 49 60 72 69 63 57 55 54 51 48 42 35 31 27 23 19 17 18 18 21
24 23 26 28 50 70 71 78 85 80 78 81 76 54 43 58 64 53 51 50 42 32 30 35 38 35 34 32 31 31 30 26 26 29 31 31 30 25 23 22 21 24 26 24 29 39 47 50 53 63 75 81 76 51 32 42 59 66 71 83 91 90 91 97 102 99 87 76 73 79 90 94 93 92 92 90 74 63 75 83 77 71 67 65 64 62 59 53 46 41 33 24 19 18 19 19 22
42 28 21 28 48 64 69 77 81 75 76 88 89 65 50 61 57 47 54 54 43 35 29 30 36 37 36 34 34 35 34 33 33 34 35 34 30 25 22 22 21 23 27 27 35 46 49 50 53 62 73 81 76 55 35 42 63 70 64 69 81 85 87 94 100 98 82 68 69 74 80 86 91 94 97 94 78 70 81 90 86 81 75 74 75 75 72 64 54 44 35 27 22 21 22 22 25
60 46 34 35 46 61 67 65 63 62 63 68 72 63 57 65 62 52 52 44 34 33 29 26 31 35 36 35 35 36 37 39 40 40 39 34 30 29 28 26 24 27 31 35 42 49 50 50 52 58 69 77 73 58 44 48 69 78 68 64 71 76 81 90 99 99 83 68 66 65 70 84 94 97 100 95 78 72 83 91 91 86 82 84 85 80 73 62 47 36 32 28 25 25 26 25 25
50 53 58 55 54 59 57 55 56 54 52 50 51 56 67 75 73 70 69 57 39 32 31 31 32 32 34 35 33 35 40 43 44 45 44 38 34 35 33 31 32 34 38 42 46 49 50 51 51 53 62 73 74 65 56 56 68 78 78 76 74 75 85 95 98 95 83 70 64 63 73 89 98 99 102 96 82 72 73 78 85 90 91 89 84 74 62 49 38 32 29 27 26 26 24 22 20
33 46 58 63 73 73 55 46 45 43 49 52 47 52 66 72 72 76 79 71 53 38 34 34 34 33 33 35 38 41 44 45 45 48 48 43 39 38 37 37 38 40 44 46 49 52 53 52 51 52 58 70 75 70 62 55 53 61 71 77 74 71 81 95 97 90 78 66 62 65 78 93 99 98 96 90 82 76 74 79 89 96 95 89 80 68 54 42 35 30 25 23 21 18 17 17 17
29 37 43 49 66 79 78 67 49 44 56 58 54 64 72 72 74 73 67 64 56 46 40 36 35 36 33 35 47 55 54 48 45 48 49 46 43 40 40 40 41 43 45 48 50 53 54 53 53 57 61 68 72 66 57 49 43 48 55 60 64 65 71 84 92 86 73 62 59 65 80 93 96 92 88 88 90 92 93 95 97 98 96 94 86 68 50 38 30 24 21 18 17 16 18 17 15
35 31 31 37 45 52 64 66 51 47 60 61 64 79 78 69 74 73 65 64 57 45 42 39 36 36 32 33 47 61 63 54 46 46 49 49 46 45 46 45 44 45 46 50 53 54 58 57 56 61 62 66 70 63 53 48 50 60 63 58 62 69 72 80 85 79 70 63 59 67 83 94 94 93 94 97 97 94 93 94 96 97 99 100 89 63 42 32 25 20 20 20 21 22 19 15 11
64 59 44 35 38 39 47 57 50 41 52 68 84 93 81 68 77 80 70 63 52 38 36 37 35 35 33 32 42 57 66 62 52 47 48 51 51 50 51 49 47 47 48 52 55 57 60 58 56 58 57 59 65 64 58 53 55 67 76 76 79 80 79 84 85 79 74 66 60 69 84 92 97 99 98 96 90 86 88 92 96 98 100 101 87 55 33 26 23 22 23 25 27 24 16 11 10
Wind_Speed
21 21 21 20 20 21 21 22 23 24 22 24 24 24 29 30 26 27 31 29 29 29 23 24 27 25 27 27 27 28 28 29 27 27 26 26 27 26 26 23 21 20 19 18 18 18 18 18 18 19 19 19 18 18 18 18 18 18 19 19 19 20 21 22 22 22 21 19 18 18 18 19 18 18 19 19 19 19 18 18 17 16 14 12 11 10 10 10 11 11 11 11 11 12 12 12 11
21 21 21 21 21 22 22 22 24 25 23 23 23 26 31 30 25 28 33 30 29 28 23 24 28 28 28 28 29 29 30 30 29 28 28 28 28 27 27 24 22 21 19 19 19 19 19 19 19 20 20 20 19 19 19 19 19 19 19 20 20 20 21 22 22 22 20 19 18 18 18 19 18 18 18 19 19 19 18 17 16 15 13 12 10 10 10 10 11 12 11 11 12 12 12 12 11
22 22 22 22 22 22 23 22 24 25 25 23 19 28 32 28 28 30 31 29 28 27 26 27 28 29 29 30 29 30 31 31 30 29 28 28 28 28 27 25 24 22 20 20 19 19 19 20 20 20 20 20 20 20 20 20 20 20 20 20 20 21 21 22 22 21 19 18 18 18 19 19 18 18 18 18 19 18 17 16 16 14 13 11 10 10 9 9 11 12 11 11 12 13 13 13 11
22 22 22 22 23 23 23 22 24 24 26 23 17 31 33 27 30 29 29 29 28 28 28 28 29 29 29 30 30 31 32 31 31 29 29 28 28 28 27 26 24 22 21 20 20 20 20 20 21 21 21 21 22 22 22 22 21 22 21 21 21 21 21 21 21 20 18 17 17 18 18 18 18 18 18 18 19 18 16 15 15 14 12 10 9 9 9 9 10 11 11 11 12 13 13 13 10
22 23 22 22 23 23 24 23 24 24 26 24 20 33 34 27 30 28 28 28 28 29 28 28 29 30 29 31 31 32 32 31 30 29 29 28 28 28 27 27 25 23 21 20 20 20 21 21 22 22 22 23 24 24 24 23 23 22 22 21 21 21 20 21 20 18 17 16 17 18 18 18 18 18 18 18 19 17 15 14 15 14 12 10 9 9 9 9 10 10 10 11 12 12 13 12 10
22 22 22 22 23 22 24 24 24 24 26 27 26 34 34 27 27 27 29 29 29 29 28 28 29 30 30 31 31 32 32 31 30 28 29 28 28 28 28 27 25 24 22 21 20 20 21 22 22 23 24 25 25 25 25 24 24 23 22 22 21 20 20 20 19 17 16 16 17 18 18 18 18 18 18 19 19 17 14 14 14 14 12 10 9 9 9 10 11 10 10 12 12 13 14 12 10
22 22 22 22 23 22 24 24 24 25 26 28 28 33 33 28 25 26 29 29 30 28 27 27 27 29 30 31 31 31 31 31 30 29 29 29 29 28 28 27 26 24 23 22 21 21 22 23 24 25 25 26 26 26 26 25 25 24 23 22 21 20 19 19 18 17 16 16 17 18 18 18 18 18 18 19 18 15 14 14 14 13 11 9 8 9 9 10 12 11 10 12 12 13 13 11 9
22 22 22 22 23 22 24 24 24 25 28 29 26 29 31 29 27 27 28 29 29 29 26 26 26 28 29 30 30 30 30 30 29 29 29 29 29 28 28 27 26 25 24 23 22 23 23 25 26 26 27 27 27 27 27 26 25 24 23 22 21 20 19 19 18 17 17 17 17 17 18 18 18 18 19 19 17 15 13 14 13 12 11 9 8 9 10 11 13 12 11 11 12 14 12 10 10
23 23 22 22 23 22 22 23 24 25 29 30 26 27 29 29 29 27 28 28 29 29 26 25 25 27 29 29 30 31 30 29 29 29 29 29 29 28 28 27 26 25 24 24 24 24 25 26 27 28 28 28 27 27 26 26 25 24 23 22 22 20 19 19 18 18 17 17 17 17 18 18 18 19 19 19 17 15 14 13 13 12 10 8 9 10 11 12 14 14 13 13 12 13 14 11 10
23 23 23 22 22 22 21 23 24 26 30 29 27 28 28 29 29 27 27 28 28 28 26 25 25 28 29 28 30 30 29 29 29 29 29 29 29 28 28 27 26 26 25 25 25 26 27 27 28 28 28 27 27 27 27 26 26 24 23 23 22 21 20 19 19 18 17 17 17 18 18 18 19 19 19 18 16 15 14 13 12 12 10 9 10 11 12 13 15 15 15 14 11 11 13 11 11
23 23 23 22 22 21 20 21 23 28 30 26 27 29 28 28 28 28 27 27 28 28 27 25 26 28 28 28 30 30 28 29 28 29 29 28 28 27 27 27 27 26 26 26 27 27 28 28 28 27 27 27 27 27 27 27 26 25 23 23 22 21 20 19 19 18 17 17 18 18 19 19 19 19 18 17 16 15 14 13 12 11 10 9 11 13 13 14 15 14 15 15 11 9 11 12 13
24 23 23 23 22 21 21 21 23 30 29 25 30 31 27 28 29 29 27 26 27 27 27 26 27 28 29 30 30 30 29 29 28 28 29 28 28 28 28 27 27 27 26 27 27 27 28 27 27 27 27 27 28 28 27 27 25 24 22 22 22 21 20 20 19 18 18 18 19 19 20 19 19 19 18 17 16 15 13 13 12 10 9 10 13 14 14 15 15 13 14 15 12 9 9 13 14
25 24 23 23 23 22 23 21 24 29 26 29 33 28 25 28 29 28 28 26 26 26 27 27 27 28 30 30 29 30 30 29 28 28 29 28 28 29 29 28 28 28 27 27 27 28 28 27 27 27 27 28 28 27 26 25 24 23 22 22 22 22 20 19 19 18 19 19 19 20 20 19 19 18 18 17 16 14 13 12 11 10 10 11 13 14 15 16 15 13 14 15 12 9 9 13 13
26 25 24 24 24 23 23 20 25 24 23 35 35 26 26 29 29 28 28 26 26 25 26 27 26 28 29 29 29 29 29 28 28 28 29 29 29 29 29 29 29 29 29 29 29 29 28 27 27 28 28 28 27 26 25 24 24 23 23 23 23 21 20 19 19 19 20 20 20 20 20 19 18 18 18 17 15 14 13 11 10 9 10 12 13 15 16 17 15 13 14 14 10 8 11 12 11
26 26 25 25 24 23 23 21 25 21 22 38 35 28 28 29 30 29 28 27 25 24 26 28 27 28 28 27 28 27 26 27 28 28 29 30 30 30 30 31 31 31 31 30 30 30 29 28 28 29 29 28 26 25 24 24 23 23 23 22 22 20 20 20 20 20 20 21 21 20 19 18 18 18 17 16 15 14 12 10 9 9 10 11 14 16 17 16 14 13 15 13 9 10 12 10 8
26 27 25 25 24 21 22 25 25 19 25 38 34 29 29 30 31 29 28 26 25 25 27 29 28 28 26 27 28 26 26 26 26 27 29 29 30 31 31 32 32 32 32 31 30 30 29 29 29 30 30 28 27 25 24 23 22 22 22 21 21 20 20 20 21 21 21 21 20 19 18 18 17 17 16 16 15 13 11 10 9 9 10 11 14 17 18 16 14 13 15 13 10 11 12 10 11
27 27 25 25 24 18 20 28 26 22 30 37 33 30 29 30 31 28 27 27 25 24 26 28 27 29 28 29 28 27 26 25 25 26 28 29 30 31 31 32 32 32 32 31 30 30 30 30 31 31 31 29 28 26 23 22 22 21 21 21 21 20 21 21 21 21 21 21 20 19 19 18 17 16 15 14 14 12 10 9 8 8 10 11 14 17 18 16 14 14 14 12 10 11 12 13 14
27 27 26 25 23 20 24 30 28 26 32 36 32 30 30 30 30 27 26 28 27 24 25 27 28 30 31 30 28 27 28 26 26 27 28 30 31 31 31 32 32 32 32 31 30 30 30 31 31 31 31 30 29 26 23 21 21 22 22 21 21 21 22 22 22 22 23 23 21 20 19 18 16 15 14 13 12 11 9 8 8 9 10 12 15 17 17 15 14 13 13 12 11 11 12 12 12
28 27 26 23 24 27 30 30 29 29 32 33 31 31 30 30 30 27 25 27 27 24 24 27 29 31 32 32 30 29 29 28 29 29 30 31 31 31 31 32 32 33 32 31 30 30 31 31 30 30 30 30 28 24 21 21 22 22 22 22 22 22 23 22 22 24 24 22 20 20 20 17 16 15 13 11 11 10 10 9 9 10 11 13 16 15 15 14 13 12 12 12 11 11 11 11 12
28 28 26 25 28 29 30 29 29 30 31 31 31 31 30 31 30 26 25 26 27 26 23 25 29 32 32 31 29 29 29 30 30 30 30 30 31 31 31 32 32 32 31 30 30 30 30 30 29 28 28 27 25 22 20 21 22 22 23 23 23 23 23 23 23 25 24 21 19 20 19 16 16 14 12 10 11 10 10 9 9 10 12 14 15 13 13 13 12 12 11 11 11 11 11 11 12
28 27 26 28 28 28 29 29 29 29 30 31 30 30 30 31 29 26 25 21 21 26 24 22 28 31 30 27 26 26 27 28 28 28 28 29 29 30 31 31 30 30 29 29 29 30 29 28 28 28 27 24 22 23 23 22 23 24 24 24 25 25 24 24 24 24 21 19 18 18 17 15 13 12 10 10 11 10 9 9 10 10 12 14 12 11 11 12 12 11 11 10 10 11 11 12 13
27 27 27 28 27 28 29 28 28 29 29 30 30 30 29 29 27 26 26 18 18 29 26 20 26 28 26 26 25 24 25 25 26 26 26 26 27 28 29 29 28 29 29 29 29 29 30 28 28 28 27 23 22 25 26 25 24 25 26 26 25 25 24 23 24 23 20 18 17 15 15 14 12 11 11 11 10 10 9 9 10 11 12 12 10 10 11 11 11 11 11 10 9 10 11 12 13
27 27 27 27 27 29 29 27 28 28 29 30 30 30 28 27 27 28 27 23 26 33 27 22 29 30 25 24 24 24 24 24 24 25 25 25 26 27 27 28 28 29 29 29 29 30 30 29 28 29 28 25 24 27 29 29 27 26 26 26 25 24 23 24 23 22 21 19 17 15 15 14 13 13 13 12 11 10 9 9 10 11 11 10 9 10 10 10 10 11 10 9 8 9 10 12 12
25 26 26 27 27 28 28 27 28 28 28 29 29 29 28 27 28 29 27 25 30 31 26 25 30 30 27 25 25 24 23 25 25 25 26 26 26 27 27 28 29 29 30 30 30 30 30 30 30 30 30 28 27 28 29 30 29 26 26 25 23 23 23 24 23 21 20 19 17 15 12 12 12 13 13 13 11 10 10 9 10 11 11 9 9 9 9 9 9 9 8 7 7 7 9 12 11
25 25 26 26 27 27 27 28 28 28 28 28 29 29 29 29 29 29 25 27 31 28 24 24 24 27 28 26 25 24 25 26 27 26 27 26 27 28 28 29 29 30 30 30 30 31 32 31 31 32 31 30 29 29 28 30 30 25 25 24 23 24 24 23 22 21 19 18 18 14 11 13 14 14 14 13 11 10 9 9 10 10 10 9 8 8 8 8 6 6 6 6 7 6 8 10 10
24 24 26 26 26 27 27 28 28 27 27 28 29 30 30 30 29 27 26 30 30 23 22 22 23 26 27 25 24 24 25 26 27 27 26 27 27 28 29 29 30 31 31 30 30 32 33 33 32 30 30 31 30 31 30 30 30 27 25 24 24 24 22 22 21 20 19 18 17 15 16 18 19 17 15 13 11 10 9 9 10 10 9 8 8 7 6 6 5 4 5 5 6 6 7 8 7
23 24 25 25 26 26 26 27 27 27 27 27 28 30 31 30 29 25 27 33 28 21 22 24 26 28 27 26 25 24 25 26 26 26 26 27 28 29 30 30 31 30 30 30 32 32 31 33 33 31 30 31 31 32 32 30 30 28 26 24 24 23 22 21 19 18 17 17 18 18 20 22 21 19 16 13 12 10 9 9 10 9 8 8 7 6 5 4 4 4 3 4 5 5 4 5 5
23 24 25 25 26 26 26 26 27 27 26 28 28 29 31 30 28 23 25 33 28 21 22 25 27 27 26 26 26 26 26 26 26 26 26 28 29 30 30 30 30 29 29 30 32 31 29 31 33 32 30 30 30 29 31 30 28 27 25 23 23 22 22 21 19 19 18 19 20 21 22 22 20 18 15 13 12 10 10 10 10 9 8 8 7 6 5 4 4 3 2 2 4 3 2 2 3
23 24 24 25 26 25 26 25 26 25 26 28 26 28 30 28 29 24 27 35 29 22 22 26 28 26 25 25 26 26 26 27 26 26 27 28 29 29 30 29 28 28 29 30 30 29 29 29 29 30 28 30 29 25 29 29 26 25 24 22 22 22 22 21 21 21 21 21 21 22 22 20 18 16 15 13 12 11 10 10 11 10 8 8 6 6 5 5 4 2 1 2 2 1 1 1 3
24 24 23 25 25 24 27 25 23 24 27 28 24 27 26 24 29 23 28 39 31 23 23 25 30 28 24 25 27 26 26 27 26 26 27 28 28 29 29 28 27 27 28 29 28 26 25 24 26 28 27 29 25 22 29 30 27 25 23 22 22 22 22 22 21 20 20 21 22 22 22 19 17 16 15 14 12 12 11 11 11 10 8 7 7 6 5 4 3 2 2 2 1 2 1 3 5
24 24 23 25 21 21 28 24 20 25 28 26 24 26 18 14 23 22 31 39 29 24 23 25 31 28 24 26 26 26 27 27 25 26 27 28 29 28 29 28 27 27 26 26 25 24 21 20 23 24 21 21 22 22 27 30 27 24 23 24 23 22 23 23 22 21 21 21 21 22 22 19 17 16 15 14 13 12 11 11 11 9 8 8 7 6 5 4 3 2 3 3 2 2 1 3 6
25 25 24 26 19 18 31 25 18 28 28 23 23 24 15 9 16 28 38 36 28 25 23 25 31 29 29 29 27 27 27 26 25 27 28 27 27 26 27 26 26 26 25 23 21 20 19 18 19 20 16 11 15 22 27 29 27 23 24 25 24 24 24 24 24 24 23 22 21 22 21 19 17 16 15 14 13 12 11 11 10 8 8 8 7 6 5 5 4 3 4 3 3 2 2 3 5
26 26 22 21 17 16 28 28 22 27 28 24 23 23 16 9 16 36 41 32 27 26 24 26 30 31 32 31 29 28 27 27 27 29 28 26 25 25 25 25 24 24 24 22 19 18 17 17 18 19 19 14 12 16 23 28 28 25 25 25 24 23 24 24 24 25 25 23 22 22 21 18 17 16 15 14 13 12 10 10 8 8 8 8 7 6 6 5 4 4 4 4 3 3 3 4 5
25 28 25 21 19 16 20 28 27 26 25 26 25 24 19 15 23 38 39 29 26 27 27 28 30 32 33 32 30 29 28 28 28 30 28 25 24 25 26 25 24 24 24 23 20 18 15 16 17 17 20 20 16 12 15 21 25 25 24 23 23 23 23 24 24 24 24 23 22 21 20 19 17 16 15 13 12 11 10 9 8 8 8 7 7 7 6 5 5 4 5 5 5 4 4 5 6
20 23 26 25 24 22 19 25 33 27 24 27 26 25 24 24 29 35 36 33 28 28 30 30 29 31 32 33 32 30 30 28 29 31 29 26 26 27 26 24 23 25 26 24 21 18 13 13 15 14 15 16 15 12 11 14 19 22 23 23 23 23 22 22 22 22 21 22 22 20 20 19 17 16 14 13 12 11 10 9 9 8 8 8 8 7 6 6 5 5 5 6 6 6 6 6 6
25 21 23 23 21 21 15 21 34 29 23 27 27 25 26 28 30 32 33 35 31 29 32 32 30 30 31 32 33 32 31 29 31 33 31 28 28 28 26 26 26 28 28 24 20 17 14 13 14 13 11 12 14 15 12 11 12 16 21 25 24 23 22 21 22 22 22 23 22 20 20 19 17 15 14 13 12 12 11 11 10 9 9 9 9 8 7 6 6 6 7 7 7 7 7 7 7
37 30 29 26 23 21 13 19 32 29 26 28 27 28 28 29 31 31 29 33 36 31 32 34 29 29 30 30 32 33 31 31 32 34 34 32 31 29 29 29 29 29 28 24 19 16 15 14 14 13 11 11 14 16 16 12 8 10 17 24 25 22 22 23 23 23 23 23 21 20 19 18 17 16 15 14 14 13 13 12 11 11 11 11 10 9 8 7 7 8 9 9 9 8 9 9 8
35 31 32 29 28 25 15 23 33 29 29 28 27 29 29 30 31 31 29 31 38 33 30 34 30 29 31 29 31 31 30 32 31 33 36 34 32 30 29 28 28 29 28 24 18 15 15 14 14 14 12 11 12 14 17 15 11 10 13 21 24 23 23 23 23 22 20 19 19 19 19 18 17 16 15 15 14 14 13 13 12 12 12 12 11 10 9 9 9 10 10 11 10 9 10 10 9
31 30 33 30 29 24 17 24 32 29 29 28 29 30 30 32 30 30 30 31 38 36 29 32 32 29 30 29 29 28 30 33 29 30 34 33 31 29 26 26 27 27 26 24 18 15 15 15 14 14 14 14 13 14 17 19 17 16 15 18 21 23 23 22 21 20 18 17 18 19 18 18 17 15 15 14 15 14 14 14 13 13 13 13 13 12 11 10 10 11 11 12 11 10 10 11 10
31 31 30 29 28 25 22 23 28 31 29 27 30 30 29 32 29 26 29 30 35 37 31 31 31 29 28 28 28 27 31 33 27 27 32 34 32 28 25 24 26 27 25 24 19 16 16 16 15 15 16 15 13 14 16 18 19 19 18 19 21 22 21 20 20 19 19 20 20 20 19 18 17 15 14 14 15 15 14 14 14 14 14 14 14 13 11 11 11 11 12 12 11 11 11 12 11
31 31 30 30 27 25 23 23 26 32 29 25 28 29 29 30 27 24 26 28 33 35 32 30 28 28 26 26 29 28 28 31 28 27 32 36 34 30 25 23 26 27 25 24 21 18 18 18 19 18 18 17 15 15 16 16 18 19 18 20 22 21 18 18 20 19 20 22 21 20 20 18 17 16 15 14 14 15 15 14 14 14 14 14 14 12 12 11 11 11 11 12 11 11 11 12 12
29 29 29 30 30 28 26 25 28 33 30 25 26 29 29 25 21 20 20 23 30 31 29 28 26 25 26 26 28 28 26 30 32 29 31 35 35 32 25 23 26 26 25 26 23 20 20 20 20 20 20 19 16 16 16 17 18 19 18 19 22 21 18 20 21 21 22 23 21 19 19 18 17 16 15 14 15 15 14 14 14 14 14 14 13 12 11 11 11 11 12 12 11 11 12 12 12
26 27 30 31 32 32 31 29 30 32 29 26 27 26 24 20 16 19 21 21 24 25 24 25 24 24 27 28 29 28 27 31 33 30 30 33 35 33 26 23 26 26 26 26 22 21 21 21 20 21 21 19 18 17 17 18 18 18 18 20 23 23 22 22 23 22 21 21 20 17 17 18 17 16 15 15 16 15 14 14 14 14 14 13 13 12 11 10 11 12 12 12 12 11 12 12 12
22 27 34 32 29 30 31 30 30 31 28 27 28 25 23 23 19 19 23 22 23 23 22 24 25 27 30 31 30 30 28 30 33 32 31 33 37 34 27 25 26 26 26 24 23 24 25 24 24 22 20 18 18 18 18 19 20 20 20 22 24 23 21 21 21 20 20 20 19 16 15 17 17 16 16 16 15 14 14 14 13 13 13 13 12 11 11 11 12 13 13 12 12 12 12 12 12
23 29 34 29 27 29 30 29 29 28 27 27 27 24 25 27 22 18 21 26 24 19 19 25 28 29 30 31 32 30 29 30 33 33 31 32 36 33 27 25 26 26 25 23 27 31 28 26 25 22 18 17 19 19 19 20 22 22 22 24 24 23 21 21 20 20 20 20 18 15 13 16 16 16 16 16 15 14 14 14 13 13 13 13 13 12 12 13 13 13 13 13 13 13 12 12 12
26 31 29 25 27 29 28 29 27 25 26 26 23 22 25 26 22 18 21 28 25 18 22 27 25 26 28 29 32 32 30 30 33 33 31 31 33 31 26 24 26 27 26 26 29 31 30 27 23 20 19 18 18 19 20 20 20 21 21 22 23 23 23 22 22 22 21 19 16 14 15 17 16 17 17 17 15 14 14 14 14 14 14 14 13 13 13 14 14 14 14 15 14 13 12 13 14
27 27 24 24 27 27 27 28 25 23 26 25 19 19 23 25 21 17 20 27 25 22 27 27 21 22 25 26 29 29 25 27 32 31 28 28 28 27 25 24 27 28 27 26 25 25 29 30 26 23 21 19 18 17 17 19 19 19 20 22 23 24 25 25 26 25 21 18 16 17 18 17 18 18 18 18 16 15 15 14 14 14 13 13 14 14 14 14 15 15 15 15 15 14 13 14 15
25 23 21 22 24 25 27 25 23 25 26 22 17 17 21 25 22 18 22 28 25 22 26 25 19 19 20 20 22 21 19 24 29 28 26 27 26 26 25 24 27 28 26 25 23 22 26 29 29 28 25 22 20 19 17 17 18 18 20 23 24 26 29 28 28 27 22 17 18 18 17 17 18 19 20 18 17 16 15 14 14 14 13 14 14 14 14 15 16 15 15 15 15 15 15 15 15
23 21 21 21 21 22 23 21 22 25 24 20 19 20 21 23 20 20 26 27 22 21 23 22 19 19 19 17 17 19 22 26 28 27 26 26 25 26 24 24 26 26 26 26 25 26 26 27 28 28 26 25 25 23 21 19 18 18 19 23 27 30 31 28 28 28 22 18 19 18 17 17 17 20 21 20 18 16 15 15 14 14 14 14 14 15 15 16 16 15 15 15 14 15 15 15 14
22 21 21 21 21 20 20 20 20 22 20 19 23 25 24 21 19 23 27 23 21 23 23 21 21 22 22 19 20 23 26 27 27 26 25 24 24 25 24 25 26 26 27 27 26 27 28 28 29 26 25 26 26 26 24 20 19 19 20 23 27 30 30 27 26 26 22 19 18 16 16 16 16 19 21 21 19 18 16 16 15 15 15 15 15 16 16 16 16 16 16 15 15 14 14 15 15
21 22 22 22 21 20 19 18 18 18 15 15 21 25 23 21 22 26 25 20 21 24 22 23 24 23 22 22 23 25 25 25 24 22 20 22 23 24 26 27 26 27 27 26 26 27 28 29 30 28 25 25 25 26 25 21 21 21 21 21 22 24 25 23 23 23 20 18 17 15 14 15 15 18 21 22 21 19 18 16 16 16 16 15 16 16 17 17 17 17 17 16 16 15 15 15 16
20 22 24 24 23 22 22 20 19 18 16 15 19 22 19 19 24 25 22 20 21 23 22 24 25 24 24 24 24 23 23 24 21 17 17 19 21 23 25 26 26 26 26 26 26 28 29 29 30 29 27 24 24 25 25 23 23 22 22 21 20 21 21 22 23 22 19 17 16 15 15 16 17 19 22 23 22 21 19 17 16 16 15 16 16 17 17 18 17 17 17 17 17 17 17 17 17
19 21 23 23 22 22 22 24 24 22 22 19 19 20 17 19 22 21 20 20 21 23 23 24 26 26 25 25 24 23 22 22 19 17 16 17 19 21 22 22 22 24 25 26 28 29 29 29 29 30 29 26 24 25 25 25 25 23 22 22 21 21 21 24 25 21 19 18 16 16 17 18 20 21 23 24 23 23 20 17 17 17 17 17 17 18 18 17 16 16 16 18 18 18 18 18 17
22 21 21 21 22 23 24 25 25 24 24 23 22 23 20 20 23 21 21 21 21 23 24 22 24 26 25 24 24 23 23 22 21 19 19 19 19 20 18 18 20 23 25 27 28 29 29 28 29 31 32 29 26 25 25 25 25 24 22 20 21 21 22 26 26 21 19 18 17 17 17 18 19 20 21 21 22 23 22 21 20 19 17 17 17 17 17 16 16 16 16 17 17 17 17 17 16
24 22 22 21 20 21 24 25 26 25 23 23 24 24 21 23 26 23 22 20 18 21 22 18 18 22 23 23 22 23 24 24 24 22 22 23 22 20 19 19 21 23 25 27 28 28 28 28 29 31 33 32 27 24 24 25 24 23 21 21 22 22 23 25 25 21 18 17 18 18 18 17 18 17 17 17 20 23 23 22 20 16 14 14 16 17 16 16 17 16 16 16 17 16 16 15 15
25 25 25 24 22 21 21 23 26 24 23 24 23 22 21 23 23 21 21 19 16 17 17 15 16 19 22 22 23 24 25 26 27 25 25 25 24 22 23 24 24 24 26 28 27 27 28 30 31 30 32 33 28 25 25 24 24 25 24 24 25 24 24 26 24 20 18 17 18 20 20 18 17 16 16 17 19 19 19 18 16 13 13 14 16 16 16 17 17 16 16 16 16 16 15 14 13
25 27 27 25 25 25 23 24 24 22 23 24 21 20 23 24 21 20 19 17 15 15 15 16 18 19 21 23 24 26 27 28 28 27 27 27 26 26 26 26 26 27 28 28 27 27 29 32 32 30 31 34 31 27 26 26 26 26 25 26 27 27 26 25 24 21 19 19 20 21 21 19 17 17 18 19 18 17 16 17 16 15 15 15 16 16 16 16 16 16 15 15 15 15 15 14 13
22 24 26 26 27 26 25 26 25 23 23 21 17 20 23 21 17 15 14 13 14 14 14 17 19 19 22 24 25 28 28 28 28 29 29 29 29 29 29 29 29 29 29 29 30 30 30 31 31 30 32 35 34 30 27 26 26 25 26 27 28 28 27 25 23 23 22 21 21 21 21 20 19 19 19 19 19 18 18 17 17 16 16 16 16 16 16 17 16 16 15 15 16 15 15 14 13
Wind_Direction
256 257 257 257 257 258 259 262 264 264 264 267 268 268 267 262 263 268 269 267 265 268 270 273 274 271 271 272 272 273 273 273 275 277 279 282 284 285 287 288 284 280 275 267 263 261 262 263 265 267 269 271 274 275 275 277 280 285 289 294 299 303 307 309 311 313 314 315 315 315 316 314 313 313 313 314 319 325 329 331 333 334 333 334 336 335 330 326 324 324 327 330 335 339 340 342 345
256 257 259 259 260 260 260 261 263 266 266 268 274 270 265 266 268 265 265 267 269 274 275 270 269 270 270 270 270 271 270 270 271 273 276 278 281 283 284 285 282 280 274 266 262 261 260 262 263 265 267 270 273 273 273 275 278 283 287 291 295 300 304 306 309 309 311 312 312 312 311 310 310 311 311 313 318 324 328 331 333 333 331 332 335 333 328 321 320 322 324 328 332 336 339 342 344
256 257 258 260 261 261 261 261 262 265 266 268 275 268 264 269 268 264 266 271 274 277 275 269 268 269 269 269 269 269 269 270 270 272 273 275 279 281 283 283 282 280 273 267 263 260 259 260 261 263 266 268 270 270 272 274 277 281 285 289 293 297 301 304 306 305 306 308 308 307 306 306 306 308 310 313 318 323 326 329 332 333 330 330 331 329 324 317 320 324 327 330 332 336 340 341 342
254 255 257 259 260 261 262 262 261 262 264 264 265 266 266 267 267 269 273 275 276 274 272 271 270 269 269 269 269 269 269 270 271 273 273 274 277 279 282 282 281 279 273 268 264 261 259 259 260 262 264 265 267 269 272 274 276 280 284 287 291 295 298 301 302 300 301 303 303 302 302 302 304 305 308 313 317 322 325 328 331 333 330 327 325 323 318 314 322 328 329 331 331 336 340 341 340
253 255 257 258 259 260 261 261 261 260 261 259 254 264 269 268 270 274 276 277 276 273 272 271 270 270 269 268 268 269 270 271 272 273 273 275 276 278 280 280 279 276 272 269 265 262 260 260 261 262 263 263 266 269 272 273 275 279 282 286 290 293 296 298 297 294 295 299 298 298 298 299 301 303 307 311 316 321 324 327 330 332 330 325 321 317 312 312 318 323 326 326 327 331 335 335 334
254 256 258 259 260 261 262 261 262 260 259 256 251 263 272 272 274 277 276 275 273 272 272 270 270 270 269 268 268 267 269 271 271 271 272 274 275 277 278 278 277 275 273 269 266 263 262 261 261 261 262 264 267 270 272 273 275 278 282 285 288 290 293 295 292 288 291 294 293 293 294 296 298 302 306 309 315 321 323 325 327 330 329 322 319 311 305 307 307 311 321 324 319 318 320 323 326
255 256 258 259 261 262 263 263 263 262 260 259 254 263 275 278 278 276 273 273 274 273 271 270 270 269 269 268 268 267 267 269 269 269 270 272 273 274 275 276 275 275 273 270 267 265 264 262 262 262 263 265 268 271 273 273 275 279 281 283 286 288 290 291 288 285 287 289 289 290 291 294 297 301 305 307 314 320 321 322 324 328 326 319 315 304 299 300 298 301 313 327 329 324 316 312 318
256 257 258 259 261 261 262 263 262 262 263 266 262 264 274 279 277 274 273 274 274 275 272 271 269 269 268 268 268 267 265 266 267 268 268 270 271 272 273 274 274 273 273 271 269 267 265 264 263 264 265 267 269 273 275 274 275 278 279 281 285 287 286 286 284 281 283 285 286 288 290 293 296 300 303 306 313 316 316 319 322 325 323 314 308 298 294 294 295 297 300 314 334 341 330 311 312
259 259 259 258 260 260 260 262 261 260 263 269 269 268 272 275 276 274 274 273 272 275 274 271 268 267 266 267 268 267 266 264 264 265 266 267 268 270 271 272 271 271 271 270 269 267 265 266 266 266 268 270 272 274 276 275 276 276 278 281 284 285 283 281 280 278 280 282 284 286 288 291 294 297 300 305 309 310 311 316 320 322 319 307 299 291 289 292 294 298 300 305 319 335 334 315 312
259 260 261 260 260 261 259 260 261 260 262 268 272 271 272 273 275 274 273 273 273 275 274 270 266 265 264 264 265 264 263 262 261 262 262 263 265 267 268 268 268 268 269 269 268 267 267 268 268 270 272 273 273 275 275 276 276 277 279 282 283 283 282 277 275 275 278 279 280 283 284 287 291 294 297 302 304 305 308 314 318 318 314 300 289 285 285 289 291 297 307 311 309 322 332 320 313
259 259 261 261 260 260 257 256 258 259 264 270 271 270 271 273 274 274 274 273 274 274 273 270 265 263 263 261 259 258 259 259 259 259 260 261 263 264 265 265 265 267 268 268 268 268 269 270 271 273 274 274 274 275 275 275 276 278 279 280 280 281 279 272 270 272 274 275 276 278 281 284 288 292 295 298 299 300 306 312 315 313 306 293 284 281 281 283 286 297 308 310 307 307 323 321 311
259 258 259 259 259 257 255 254 255 262 271 271 266 270 274 274 273 273 274 272 272 272 270 268 266 264 262 260 257 256 256 256 256 256 259 260 261 263 263 264 265 267 268 268 268 268 269 271 273 274 275 276 276 277 276 276 277 278 278 277 276 278 274 267 266 268 269 271 273 276 280 284 287 289 291 292 293 298 305 308 309 305 295 286 281 279 280 281 282 293 302 304 305 295 305 318 311
258 258 258 257 258 256 257 259 261 269 276 270 268 275 276 273 274 275 274 271 269 268 268 266 264 263 262 261 259 256 254 253 254 255 257 259 260 262 263 264 266 267 268 268 268 269 270 272 274 276 277 279 279 279 277 278 278 277 275 273 273 273 268 262 262 263 266 268 271 276 280 283 284 285 286 287 291 296 300 301 301 294 284 279 279 279 278 280 283 287 291 297 302 293 294 308 309
256 257 257 258 259 259 261 261 265 270 272 273 275 280 278 275 278 278 277 273 268 266 266 264 260 260 261 260 259 255 251 251 253 254 255 257 258 260 262 265 266 267 267 267 268 270 272 274 277 279 281 282 282 281 280 280 279 276 273 270 269 267 262 258 259 261 264 268 272 276 279 280 280 281 282 286 290 293 292 292 290 282 276 275 277 280 277 279 288 292 293 297 294 289 300 301 298
255 256 257 259 260 263 264 258 265 266 265 275 280 283 282 281 281 281 279 275 271 268 264 263 260 259 260 259 257 252 251 252 253 254 255 256 258 259 262 264 266 267 267 268 269 271 275 278 281 283 284 286 285 283 283 282 279 275 271 268 265 261 258 256 257 260 263 267 272 276 277 277 277 278 282 285 286 285 282 281 280 274 272 273 275 278 278 280 289 292 292 295 283 286 310 313 301
254 256 257 258 260 262 264 262 264 259 263 275 281 286 286 283 283 282 281 277 272 268 264 265 263 261 259 257 254 249 252 253 252 253 253 255 258 260 262 264 265 267 269 271 273 277 281 284 285 286 287 287 286 285 285 284 280 274 269 265 260 256 254 254 256 259 263 268 272 276 277 275 276 278 280 280 279 278 274 272 272 271 270 270 273 275 276 278 282 284 286 290 285 286 303 308 303
253 255 255 257 260 256 257 262 262 259 268 276 281 286 284 281 282 282 281 277 271 267 265 265 262 262 261 256 252 249 250 248 247 249 252 256 258 259 262 263 265 268 272 274 278 282 286 288 289 290 290 288 286 285 285 283 278 271 265 260 256 252 251 253 256 260 264 267 270 274 274 275 276 277 276 275 274 271 268 269 270 268 266 266 269 271 273 277 281 284 287 288 288 290 293 295 297
252 254 255 257 258 251 253 261 265 267 272 278 282 282 280 280 280 280 279 275 272 267 265 267 265 266 263 256 252 248 244 241 244 249 254 258 258 260 263 265 268 271 274 277 280 285 287 288 290 292 289 287 284 280 279 279 274 266 259 255 252 250 252 254 257 261 262 265 270 272 273 274 273 272 269 268 267 265 266 269 267 261 260 263 265 269 275 281 283 284 286 286 291 296 293 293 295
252 253 256 257 254 255 260 266 271 271 273 278 280 278 279 278 277 276 274 273 273 267 265 267 267 265 259 254 251 247 244 242 247 252 254 257 259 262 265 268 270 272 275 279 283 286 287 287 289 291 289 287 278 270 271 271 267 260 254 251 249 249 251 254 257 259 262 267 271 271 272 271 270 269 262 257 259 259 264 265 259 256 258 262 264 269 277 282 284 284 285 289 296 298 295 296 297
252 254 256 255 256 262 266 268 271 271 274 277 277 277 277 274 274 274 270 269 271 267 263 264 264 262 257 254 249 246 247 248 251 253 254 257 261 265 268 270 271 274 278 281 285 287 286 287 289 289 291 289 272 261 267 264 259 255 250 248 247 249 250 254 257 259 264 269 268 269 272 273 271 262 251 253 257 256 260 260 253 253 257 260 263 270 277 280 283 286 290 295 301 301 300 301 299
254 254 255 256 260 266 267 269 271 273 274 274 275 275 273 273 274 272 267 265 269 264 255 255 262 260 254 252 248 245 248 252 255 256 258 263 267 269 270 272 275 278 282 284 286 285 286 288 288 288 291 287 265 256 263 260 254 250 247 245 245 246 249 252 255 261 266 266 266 271 273 272 263 250 251 255 252 254 256 252 249 252 258 261 266 272 276 281 285 290 294 299 303 305 304 302 299
255 256 256 260 263 266 267 270 272 272 273 273 273 272 272 275 275 271 265 252 248 257 253 250 261 259 250 250 251 248 250 254 257 260 264 268 270 272 273 276 279 281 283 285 285 285 286 288 286 287 291 282 257 253 260 258 252 248 244 244 244 245 249 251 255 263 268 270 274 274 271 263 251 254 263 258 251 256 251 245 251 257 262 264 268 272 274 283 289 291 295 300 301 302 300 299 301
256 258 259 262 264 266 269 270 270 270 270 271 271 271 273 275 272 269 266 253 249 260 260 252 256 258 254 251 251 250 251 253 255 260 265 267 269 272 275 278 279 281 282 283 285 286 287 287 286 287 288 277 255 252 257 255 251 248 245 243 245 246 249 250 253 261 266 273 275 271 266 248 246 262 261 259 261 256 246 246 257 262 263 265 266 269 274 282 286 288 296 302 303 303 294 296 302
257 260 262 263 265 267 268 268 267 267 267 268 270 271 271 271 269 268 268 261 257 263 266 257 254 256 256 255 255 253 252 252 255 260 263 265 269 272 275 277 278 279 280 282 285 288 287 285 287 287 286 278 261 254 255 252 250 248 246 245 245 246 248 250 253 257 260 266 267 267 260 235 245 265 257 261 262 247 246 251 260 262 262 265 268 271 275 277 279 284 295 302 305 306 291 291 296
258 261 263 265 266 266 266 266 265 265 266 268 269 269 269 267 267 268 269 263 262 266 266 259 251 247 252 258 258 253 249 253 257 259 262 265 269 273 274 275 277 279 282 284 287 288 285 283 286 284 280 277 268 262 257 250 247 246 247 248 246 247 248 251 255 257 259 263 262 261 251 244 259 266 260 261 252 242 247 252 258 260 261 267 270 273 273 271 272 279 292 302 304 301 287 286 289
260 264 265 266 266 265 266 265 265 265 266 267 267 268 268 266 266 268 266 262 264 268 260 251 246 247 252 252 247 244 247 253 257 258 263 268 269 272 273 276 278 281 284 285 286 284 280 280 282 282 280 276 272 268 261 250 245 246 248 248 246 247 248 250 256 261 263 264 260 252 247 253 261 262 261 257 247 246 249 253 256 256 261 267 269 270 265 261 264 275 291 306 308 302 293 290 290
263 266 267 267 266 266 266 266 265 265 265 265 266 267 266 266 267 267 266 264 263 258 252 249 252 254 254 250 246 247 252 254 256 260 264 267 270 273 274 277 280 283 286 284 284 281 280 280 275 280 284 277 273 265 254 246 244 247 246 244 245 248 251 253 258 260 259 258 253 249 251 253 256 258 258 252 248 251 251 253 253 255 260 263 264 256 244 244 253 271 293 319 314 309 306 294 295
262 265 266 266 266 266 266 266 265 265 266 265 265 267 267 269 269 262 259 263 263 253 251 257 260 258 256 254 252 252 255 256 258 261 264 267 271 274 275 278 281 284 285 286 285 280 280 282 274 279 280 272 276 263 244 240 241 246 245 242 245 248 254 258 259 257 254 253 250 251 253 253 254 255 254 251 252 254 253 253 252 256 258 257 252 232 219 223 238 260 285 327 316 321 345 292 298
260 262 265 266 267 267 266 265 267 269 268 266 267 268 269 270 268 262 260 263 263 253 252 263 263 261 259 250 246 251 255 257 260 262 265 268 270 272 275 278 281 283 286 288 289 282 284 288 280 284 276 264 276 261 236 235 238 243 240 237 242 245 253 257 258 257 251 248 247 249 252 252 253 253 251 253 254 254 252 252 254 257 255 249 232 211 206 214 229 245 248 297 312 22 56 292 300
259 262 265 267 270 271 267 264 269 271 266 267 268 267 271 276 273 266 259 262 261 254 252 261 264 263 257 245 245 255 258 260 262 265 267 267 268 271 273 276 280 284 288 291 291 290 293 291 281 286 277 260 263 249 233 233 235 241 238 235 239 242 250 254 255 255 248 246 246 248 250 250 249 248 249 251 254 254 251 254 258 257 248 234 213 200 204 213 226 233 235 257 217 141 149 281 296
259 262 265 268 272 273 268 266 269 266 263 266 267 266 266 277 281 264 254 262 266 261 254 255 263 262 249 244 253 258 259 263 266 267 267 267 269 272 273 275 280 287 293 296 297 297 296 291 280 285 282 258 247 243 237 234 235 239 236 234 236 240 248 248 248 249 247 247 247 249 249 246 244 243 246 250 252 252 253 258 258 250 234 217 203 200 207 215 225 238 243 236 212 173 188 276 290
257 259 263 268 266 263 269 268 263 263 263 264 267 266 252 234 267 260 258 266 267 260 254 252 259 261 254 253 258 259 261 266 267 267 268 270 271 271 272 276 283 290 297 301 306 306 297 288 281 280 283 274 253 244 237 233 236 236 235 237 238 242 247 244 245 250 250 245 243 247 247 241 238 238 243 247 250 253 256 258 251 236 217 203 198 203 211 219 224 241 253 240 230 249 265 276 283
256 258 259 264 258 252 270 270 256 261 267 266 261 260 250 215 248 259 264 271 267 259 253 251 255 257 259 259 258 260 262 265 266 265 266 269 269 269 274 281 286 292 300 303 305 309 302 289 284 276 270 277 276 252 235 232 234 235 236 239 242 243 244 244 248 252 250 243 239 243 242 238 235 236 240 244 249 255 256 249 239 222 206 199 200 205 212 218 222 234 251 257 250 249 264 276 280
258 259 252 248 247 236 256 270 262 258 265 268 263 257 247 214 230 256 269 276 270 261 252 250 255 255 256 258 257 258 259 262 264 264 265 267 267 271 278 283 287 292 298 302 300 306 309 294 290 286 272 271 276 265 245 235 230 232 235 235 239 240 243 247 249 250 248 243 240 240 238 236 234 235 238 242 247 251 247 239 230 217 206 205 207 209 215 218 222 231 245 262 267 266 270 274 277
253 260 257 247 249 245 241 261 264 260 261 265 266 262 254 238 239 256 270 273 266 260 255 250 253 256 255 255 256 256 257 259 262 264 265 265 266 272 277 281 286 291 296 299 300 305 310 297 293 292 283 274 266 260 259 244 232 234 234 233 235 236 240 244 245 246 244 243 243 239 236 234 233 234 235 238 242 241 237 233 227 218 211 211 213 213 217 221 223 232 246 258 267 273 273 270 271
236 239 252 245 242 249 246 253 260 263 261 261 264 261 256 250 250 254 263 270 266 256 257 254 251 255 254 252 255 256 257 257 260 264 264 261 263 268 274 280 284 288 292 295 298 306 306 296 290 286 278 265 258 259 262 253 243 245 240 234 233 234 237 240 245 249 245 245 247 240 235 234 231 232 233 234 237 236 232 230 227 221 216 216 217 215 218 225 229 237 249 256 264 272 274 273 272
242 239 248 249 239 237 235 252 259 262 261 260 263 262 255 251 251 252 253 263 267 259 257 260 255 254 255 252 254 257 258 257 258 262 262 260 262 268 273 278 281 284 288 290 293 302 302 290 282 278 268 252 252 253 251 250 256 264 249 232 230 237 241 242 249 252 250 251 248 240 235 233 231 230 231 233 234 234 231 229 227 223 221 220 220 219 221 230 240 248 256 261 268 274 274 273 272
252 247 246 249 246 239 233 255 261 260 260 260 261 261 258 255 253 253 249 252 264 265 260 262 259 253 256 257 256 258 258 256 255 258 262 263 265 269 271 274 277 279 283 285 287 293 291 282 274 270 262 247 240 237 242 249 255 271 256 230 230 240 243 244 248 247 248 249 244 239 235 232 231 230 232 234 233 233 230 229 228 225 224 223 225 226 227 236 248 257 263 267 271 273 274 274 273
249 246 247 246 247 243 233 252 262 259 258 261 262 263 261 260 258 256 254 251 260 267 262 262 263 256 255 258 258 256 255 254 252 255 260 263 263 263 263 266 270 273 277 278 279 283 280 272 266 260 253 246 237 233 243 249 255 266 255 231 233 242 239 240 245 240 235 237 236 237 236 231 231 233 235 237 235 232 230 228 227 227 227 225 228 230 232 241 252 260 267 270 272 275 276 275 273
247 246 249 247 246 244 235 247 263 261 257 259 264 268 265 265 265 260 260 256 257 265 264 259 261 260 256 256 257 255 254 256 253 250 255 257 256 255 254 258 264 268 271 272 273 273 269 263 257 250 244 240 233 230 237 243 252 256 242 233 237 239 235 234 239 235 222 225 232 236 236 231 231 236 238 238 235 229 227 228 228 227 226 226 229 232 235 243 250 258 266 270 276 277 277 275 273
251 248 247 249 245 240 237 242 257 262 262 264 266 269 269 270 273 268 264 262 258 259 261 258 258 260 258 254 253 252 253 258 255 246 248 251 251 251 248 249 258 263 264 266 267 264 262 258 255 251 243 236 227 220 225 236 245 245 237 238 236 228 232 237 236 232 220 221 229 235 237 235 235 238 237 234 230 226 225 227 228 227 226 227 229 233 236 242 249 256 265 271 277 278 277 277 275
251 252 250 251 244 237 242 246 252 261 267 269 268 268 270 273 280 274 261 260 260 256 255 256 254 253 254 252 251 250 248 252 252 242 242 249 251 249 244 241 250 256 258 262 264 264 264 260 256 255 244 233 224 218 222 233 238 239 237 235 228 223 235 240 234 231 225 222 225 231 237 237 238 238 232 227 224 225 227 227 230 230 229 229 230 234 237 243 251 259 266 270 273 276 277 276 276
250 253 248 247 245 243 251 253 251 256 261 265 266 267 268 265 262 261 250 240 248 254 250 248 248 247 247 247 249 249 244 247 251 245 239 244 248 247 240 235 241 248 254 260 264 262 259 254 251 252 246 234 225 218 220 227 229 236 233 220 219 228 237 239 234 230 224 223 226 229 235 238 239 238 229 221 220 224 229 230 232 233 233 233 233 236 241 247 256 262 266 268 270 271 271 270 268
244 248 247 246 248 248 252 253 252 255 256 258 263 265 265 260 248 253 263 252 243 251 250 240 237 239 240 239 240 242 242 244 249 248 241 238 242 244 239 233 236 244 252 258 258 251 245 244 245 249 250 241 232 222 218 221 220 226 225 218 223 233 237 236 231 223 217 224 225 217 232 247 245 239 227 219 221 225 231 232 232 234 235 236 236 240 244 250 257 260 263 266 267 266 265 262 258
238 246 252 249 247 249 251 251 251 254 255 256 262 265 265 264 255 246 259 260 251 253 252 242 237 238 242 240 235 234 237 241 244 245 245 241 242 244 239 233 236 243 250 251 252 251 248 248 248 251 254 251 242 229 222 225 224 223 221 222 229 232 232 229 221 216 217 222 217 211 244 264 254 241 230 223 225 229 233 235 234 235 237 237 239 242 245 250 255 258 262 264 263 261 261 256 251
241 250 259 253 248 250 251 251 250 251 255 256 257 259 262 266 262 248 249 256 256 251 244 244 244 242 244 243 237 231 228 235 242 243 244 243 242 243 240 234 237 242 245 245 251 257 260 261 260 258 258 258 254 240 230 233 234 229 222 221 228 231 229 223 218 216 215 212 215 237 268 274 260 245 232 225 227 230 236 238 237 238 239 241 243 244 245 250 253 255 259 261 261 257 253 252 251
247 255 261 255 251 251 249 249 248 245 252 260 257 252 258 263 261 254 252 254 252 246 242 244 244 238 236 235 234 230 224 232 244 245 243 243 242 242 241 235 235 239 242 246 256 267 269 269 270 268 267 272 275 264 251 247 242 235 225 220 227 232 228 224 221 217 210 210 230 257 272 273 263 248 233 228 230 232 236 239 241 242 243 245 248 248 250 252 254 255 257 259 261 259 253 251 253
248 251 253 253 252 252 251 250 248 246 251 262 263 252 252 257 259 251 247 250 248 247 250 250 246 239 235 233 232 237 237 239 247 249 245 243 241 241 242 235 233 238 242 247 257 266 269 271 268 265 270 280 283 279 273 266 255 245 234 226 229 230 227 227 221 212 208 222 246 264 269 265 258 245 234 230 230 233 236 238 242 245 245 247 249 251 254 255 256 257 257 258 260 261 260 255 254
246 244 242 243 244 247 249 248 248 253 256 256 251 247 245 249 257 252 247 252 256 255 253 250 245 242 243 244 240 244 246 243 247 248 244 241 238 238 238 233 233 237 240 244 251 257 263 270 266 257 259 272 278 278 278 276 265 256 245 235 233 230 225 219 212 208 213 233 254 265 265 260 252 243 235 230 229 231 234 237 240 241 242 245 250 253 256 256 257 256 255 256 255 256 259 259 258
241 239 237 236 235 239 249 249 245 250 256 251 245 246 245 245 252 253 252 255 258 256 250 240 235 235 237 238 236 240 245 244 245 245 242 237 232 232 232 231 231 233 236 241 247 253 260 268 268 258 256 267 277 277 273 268 262 258 250 241 235 228 219 210 208 214 223 238 251 259 259 255 252 244 235 231 230 228 232 236 236 238 240 244 250 255 257 256 255 254 253 252 250 248 252 259 263
234 232 233 233 228 229 241 250 247 245 248 251 252 251 250 249 250 254 258 259 253 251 245 234 230 229 230 231 233 239 245 245 243 241 236 229 224 224 227 229 229 228 233 241 247 253 259 265 269 266 262 270 279 276 270 264 260 255 249 247 238 227 223 220 217 222 232 242 250 253 253 252 250 245 238 234 230 226 231 236 236 239 242 246 252 255 257 257 256 254 252 250 248 247 250 256 263
234 231 230 231 230 228 232 237 239 239 234 236 252 256 252 252 252 253 257 256 250 247 241 232 228 226 228 232 236 242 243 241 239 234 228 225 222 224 228 229 228 227 232 240 246 251 257 262 267 267 265 272 279 278 272 267 262 253 247 248 240 234 238 234 225 228 240 248 249 247 249 249 247 244 239 235 229 226 233 240 241 244 248 252 257 258 258 258 255 254 252 250 249 249 252 256 261
232 232 231 231 233 232 235 239 240 241 241 241 252 258 254 252 254 253 255 254 249 245 241 233 227 224 228 234 238 243 242 235 229 225 222 221 222 226 230 230 227 227 232 239 244 249 255 262 267 268 267 270 276 276 273 270 267 258 249 244 240 240 241 233 227 235 247 249 247 244 246 249 246 242 239 234 228 227 234 245 250 251 251 254 257 258 259 258 255 255 252 251 251 250 253 256 258
231 232 229 229 233 234 235 241 244 245 248 249 252 256 256 254 254 253 255 256 250 243 240 235 228 224 229 236 239 243 241 230 221 218 219 222 227 231 234 233 228 226 231 238 244 250 257 263 268 268 265 264 271 274 272 273 272 265 256 247 239 236 234 230 233 244 252 252 248 241 243 250 249 245 244 238 229 228 235 247 253 249 246 251 257 258 259 257 256 255 253 253 253 252 252 255 256
232 231 228 224 229 237 238 241 245 246 249 252 254 255 252 248 250 253 258 262 258 248 243 239 231 227 231 235 237 240 240 231 222 220 221 224 229 234 238 240 236 231 234 239 246 252 258 262 266 268 264 259 265 272 271 272 271 265 258 249 242 238 235 234 238 247 255 254 246 237 239 246 249 247 244 238 233 234 238 243 245 242 243 252 258 258 256 254 253 253 253 253 254 253 252 252 253
231 231 232 227 227 233 236 239 241 242 245 247 251 255 253 249 252 257 262 266 263 254 247 239 232 229 230 231 231 236 238 233 229 228 227 225 228 234 240 243 242 238 238 240 245 251 256 259 264 271 267 256 258 268 266 263 264 260 252 246 245 245 240 237 241 247 251 248 240 235 234 238 241 239 236 235 237 240 240 241 244 249 253 255 255 253 252 250 250 250 251 251 253 253 252 250 250
229 231 234 233 234 236 238 242 242 241 243 242 243 252 253 251 254 255 254 258 259 253 244 236 233 232 232 229 227 232 235 233 231 231 228 226 228 234 238 242 242 240 240 241 245 249 253 258 265 272 266 254 254 263 259 257 260 256 248 243 242 240 235 232 237 240 241 239 233 230 230 230 231 233 233 236 242 247 247 248 253 257 255 254 252 249 247 247 248 248 248 248 249 251 251 250 248
226 229 232 231 234 237 240 245 247 246 246 241 241 253 256 252 252 250 248 253 254 246 236 235 234 232 232 230 228 228 229 229 229 229 228 227 229 232 235 237 238 238 240 243 246 248 251 257 262 262 256 249 250 254 256 257 257 254 250 243 236 234 230 227 229 232 232 232 229 227 227 224 224 231 238 240 245 249 248 247 249 249 251 252 249 243 241 243 245 245 245 245 246 247 247 246 244